Time,TemperatureF,DewpointF,PressureIn,WindDirection,WindDirectionDegrees,WindSpeedMPH,WindSpeedGustMPH,Humidity,HourlyPrecipIn,Conditions,Clouds,dailyrainin,SolarRadiationWatts/m^2,SoftwareType,DateUTC
2014-02-22 08:54:00,0.0,0.0,29.85,ENE,68,0.0,0.0,0,-99.99,,---,-99.99,0.00,VWS V14.01,2014-02-22 14:54:00,
2014-02-22 08:55:00,0.0,0.0,29.85,ENE,68,0.0,0.0,0,-99.99,,---,-99.99,0.00,VWS V14.01,2014-02-22 14:55:00,
2014-02-22 08:56:00,0.0,0.0,29.85,ENE,68,0.0,0.0,0,-99.99,,---,-99.99,0.00,VWS V14.01,2014-02-22 14:56:00,
2014-02-22 08:58:00,38.8,17.2,29.85,NE,45,2.7,2.7,41,-99.99,,---,-99.99,0.00,VWS V14.01,2014-02-22 14:58:00,
2014-02-22 09:03:00,38.8,17.2,29.85,NE,45,2.7,2.7,41,-99.99,,---,-99.99,0.00,VWS V14.01,2014-02-22 15:03:00,
2014-02-22 09:08:00,38.7,17.0,29.85,ENE,68,0.0,0.0,41,-99.99,,---,-99.99,0.00,VWS V14.01,2014-02-22 15:08:00,
2014-02-22 09:13:00,38.7,17.0,29.85,ENE,68,5.8,5.8,41,-99.99,,---,-99.99,0.00,VWS V14.01,2014-02-22 15:13:00,
2014-02-22 09:18:00,38.8,17.2,29.85,ENE,68,2.0,2.0,41,-99.99,,---,-99.99,0.00,VWS V14.01,2014-02-22 15:18:00,
2014-02-22 09:23:00,39.2,17.5,29.85,ENE,68,5.6,5.6,41,-99.99,,---,-99.99,0.00,VWS V14.01,2014-02-22 15:23:00,
2014-02-22 09:28:00,40.6,18.2,29.88,ENE,68,4.9,4.9,40,-99.99,,---,-99.99,0.00,VWS V14.01,2014-02-22 15:28:00,
2014-02-22 09:33:00,40.6,18.2,29.88,ENE,68,2.0,6.9,40,-99.99,,---,-99.99,0.00,VWS V14.01,2014-02-22 15:33:00,
2014-02-22 09:38:00,41.7,17.4,29.88,NNE,22,4.9,6.3,37,-99.99,,---,-99.99,0.00,VWS V14.01,2014-02-22 15:38:00,
2014-02-22 09:43:00,41.5,16.6,29.88,ENE,68,10.1,10.1,36,-99.99,,---,-99.99,0.00,VWS V14.01,2014-02-22 15:43:00,
2014-02-22 09:49:00,42.3,15.9,29.88,ENE,68,6.0,10.1,34,-99.99,,---,-99.99,0.00,VWS V14.01,2014-02-22 15:49:00,
2014-02-22 09:54:00,42.4,16.1,29.88,ESE,112,7.4,7.4,34,-99.99,,---,-99.99,0.00,VWS V14.01,2014-02-22 15:54:00,
2014-02-22 09:59:00,42.4,16.1,29.88,ENE,68,3.1,6.0,34,-99.99,,---,-99.99,0.00,VWS V14.01,2014-02-22 15:59:00,
2014-02-22 10:04:00,42.8,16.4,29.88,East,90,0.0,2.0,34,-99.99,,---,-99.99,0.00,VWS V14.01,2014-02-22 16:04:00,
2014-02-22 10:09:00,43.2,16.7,29.88,ENE,68,2.7,2.7,34,-99.99,,---,-99.99,0.00,VWS V14.01,2014-02-22 16:09:00,
2014-02-22 10:14:00,44.1,16.8,29.88,ENE,68,3.6,3.6,33,-99.99,,---,-99.99,0.00,VWS V14.01,2014-02-22 16:14:00,
2014-02-22 10:19:00,44.1,15.4,29.88,ENE,68,3.6,3.6,31,-99.99,,---,-99.99,0.00,VWS V14.01,2014-02-22 16:19:00,
2014-02-22 10:24:00,44.2,16.3,29.91,ENE,68,6.3,6.3,32,-99.99,,---,-99.99,0.00,VWS V14.01,2014-02-22 16:24:00,
2014-02-22 10:29:00,44.1,15.4,29.91,ENE,68,0.0,3.8,31,-99.99,,---,-99.99,0.00,VWS V14.01,2014-02-22 16:29:00,
2014-02-22 10:34:00,44.1,15.4,29.91,ENE,68,2.7,3.8,31,-99.99,,---,-99.99,0.00,VWS V14.01,2014-02-22 16:34:00,
2014-02-22 10:39:00,45.1,15.6,29.88,East,90,6.0,6.0,30,-99.99,,---,-99.99,0.00,VWS V14.01,2014-02-22 16:39:00,
2014-02-22 10:44:00,45.1,15.6,29.88,ENE,68,2.2,2.2,30,-99.99,,---,-99.99,0.00,VWS V14.01,2014-02-22 16:44:00,
2014-02-22 10:49:00,46.0,16.4,29.88,ENE,68,3.4,6.5,30,-99.99,,---,-99.99,0.00,VWS V14.01,2014-02-22 16:49:00,
2014-02-22 10:54:00,46.0,15.6,29.88,East,90,5.6,5.6,29,-99.99,,---,-99.99,0.00,VWS V14.01,2014-02-22 16:54:00,
2014-02-22 10:59:00,46.2,15.7,29.88,East,90,2.9,2.9,29,-99.99,,---,-99.99,0.00,VWS V14.01,2014-02-22 16:59:00,
2014-02-22 11:04:00,46.2,14.9,29.88,ENE,68,6.5,6.5,28,-99.99,,---,-99.99,0.00,VWS V14.01,2014-02-22 17:04:00,
2014-02-22 11:09:00,46.2,14.9,29.88,East,90,6.5,6.5,28,-99.99,,---,-99.99,0.00,VWS V14.01,2014-02-22 17:09:00,
2014-02-22 11:14:00,46.2,14.9,29.88,East,90,7.6,7.6,28,-99.99,,---,-99.99,0.00,VWS V14.01,2014-02-22 17:14:00,
2014-02-22 11:19:00,46.4,14.2,29.88,East,90,8.1,8.1,27,-99.99,,---,-99.99,0.00,VWS V14.01,2014-02-22 17:19:00,
2014-02-22 11:24:00,46.4,14.2,29.88,East,90,1.3,1.3,27,-99.99,,---,-99.99,0.00,VWS V14.01,2014-02-22 17:24:00,
2014-02-22 11:29:00,46.8,14.6,29.88,ESE,112,3.6,4.3,27,-99.99,,---,-99.99,0.00,VWS V14.01,2014-02-22 17:29:00,
2014-02-22 11:34:00,46.9,14.7,29.88,East,90,4.7,4.7,27,-99.99,,---,-99.99,0.00,VWS V14.01,2014-02-22 17:34:00,
2014-02-22 11:39:00,46.9,14.7,29.88,ESE,112,7.2,7.2,27,-99.99,,---,-99.99,0.00,VWS V14.01,2014-02-22 17:39:00,
2014-02-22 11:44:00,47.5,15.2,29.88,ENE,68,4.0,4.0,27,-99.99,,---,-99.99,0.00,VWS V14.01,2014-02-22 17:44:00,
2014-02-22 11:49:00,48.4,16.0,29.88,ESE,112,2.7,4.9,27,-99.99,,---,-99.99,0.00,VWS V14.01,2014-02-22 17:49:00,
2014-02-22 11:54:00,48.6,15.2,29.88,ENE,68,6.3,6.3,26,-99.99,,---,-99.99,0.00,VWS V14.01,2014-02-22 17:54:00,
2014-02-22 11:59:00,48.6,15.2,29.88,ENE,68,5.6,5.6,26,-99.99,,---,-99.99,0.00,VWS V14.01,2014-02-22 17:59:00,
2014-02-22 12:04:00,48.6,13.4,29.88,ENE,68,5.6,5.6,24,-99.99,,---,-99.99,0.00,VWS V14.01,2014-02-22 18:04:00,
2014-02-22 12:09:00,48.6,13.4,29.88,NE,45,3.4,3.4,24,-99.99,,---,-99.99,0.00,VWS V14.01,2014-02-22 18:09:00,
2014-02-22 12:15:00,48.2,14.9,29.88,East,90,4.9,4.9,26,-99.99,,---,-99.99,0.00,VWS V14.01,2014-02-22 18:15:00,
2014-02-22 12:20:00,48.2,14.9,29.88,NNW,338,2.7,2.7,26,-99.99,,---,-99.99,0.00,VWS V14.01,2014-02-22 18:20:00,
2014-02-22 12:25:00,47.8,15.5,29.88,NE,45,0.0,0.0,27,-99.99,,---,-99.99,0.00,VWS V14.01,2014-02-22 18:25:00,
2014-02-22 12:30:00,48.0,15.6,29.88,NNE,22,0.0,0.0,27,-99.99,,---,-99.99,0.00,VWS V14.01,2014-02-22 18:30:00,
2014-02-22 12:35:00,48.0,15.6,29.88,NNE,22,0.0,0.0,27,-99.99,,---,-99.99,0.00,VWS V14.01,2014-02-22 18:35:00,
2014-02-22 12:40:00,47.3,15.0,29.88,NNE,22,0.0,0.0,27,-99.99,,---,-99.99,0.00,VWS V14.01,2014-02-22 18:40:00,
2014-02-22 12:45:00,46.9,14.7,29.88,North,0,10.5,10.5,27,-99.99,,---,-99.99,0.00,VWS V14.01,2014-02-22 18:45:00,
2014-02-22 12:50:00,46.4,15.1,29.88,NNE,22,1.1,1.1,28,-99.99,,---,-99.99,0.00,VWS V14.01,2014-02-22 18:50:00,
2014-02-22 12:55:00,45.5,14.3,29.91,North,0,5.4,5.4,28,-99.99,,---,-99.99,0.00,VWS V14.01,2014-02-22 18:55:00,
2014-02-22 13:00:00,45.5,15.1,29.91,NNE,22,10.3,10.3,29,-99.99,,---,-99.99,0.00,VWS V14.01,2014-02-22 19:00:00,
2014-02-22 13:05:00,44.8,14.5,29.91,NNE,22,6.5,6.5,29,-99.99,,---,-99.99,0.00,VWS V14.01,2014-02-22 19:05:00,
2014-02-22 13:10:00,44.4,14.9,29.91,NE,45,3.8,10.3,30,-99.99,,---,-99.99,0.00,VWS V14.01,2014-02-22 19:10:00,
2014-02-22 13:15:00,44.6,15.9,29.91,East,90,5.6,5.6,31,-99.99,,---,-99.99,0.00,VWS V14.01,2014-02-22 19:15:00,
2014-02-22 13:20:00,44.6,15.1,29.91,NNE,22,9.8,9.8,30,-99.99,,---,-99.99,0.00,VWS V14.01,2014-02-22 19:20:00,
2014-02-22 13:25:00,44.6,15.1,29.91,ENE,68,3.6,9.2,30,-99.99,,---,-99.99,0.00,VWS V14.01,2014-02-22 19:25:00,
2014-02-22 13:30:00,45.0,16.9,29.91,NNE,22,3.6,8.5,32,-99.99,,---,-99.99,0.00,VWS V14.01,2014-02-22 19:30:00,
2014-02-22 13:35:00,44.8,15.3,29.91,NNE,22,3.6,4.0,30,-99.99,,---,-99.99,0.00,VWS V14.01,2014-02-22 19:35:00,
2014-02-22 13:40:00,44.4,14.9,29.88,NE,45,6.0,6.5,30,-99.99,,---,-99.99,0.00,VWS V14.01,2014-02-22 19:40:00,
2014-02-22 13:45:00,44.6,15.1,29.88,ENE,68,7.8,7.8,30,-99.99,,---,-99.99,0.00,VWS V14.01,2014-02-22 19:45:00,
2014-02-22 13:50:00,44.8,16.0,29.88,NNW,338,4.9,6.3,31,-99.99,,---,-99.99,0.00,VWS V14.01,2014-02-22 19:50:00,
2014-02-22 13:55:00,45.0,15.4,29.88,NE,45,6.0,6.0,30,-99.99,,---,-99.99,0.00,VWS V14.01,2014-02-22 19:55:00,
2014-02-22 14:00:00,43.7,13.5,29.88,North,0,7.8,7.8,29,-99.99,,---,-99.99,0.00,VWS V14.01,2014-02-22 20:00:00,
2014-02-22 14:05:00,43.7,13.5,29.88,ENE,68,5.6,5.6,29,-99.99,,---,-99.99,0.00,VWS V14.01,2014-02-22 20:05:00,
2014-02-22 14:10:00,44.4,14.2,29.91,ENE,68,7.8,7.8,29,-99.99,,---,-99.99,0.00,VWS V14.01,2014-02-22 20:10:00,
2014-02-22 14:15:00,44.4,14.2,29.91,North,0,3.8,6.3,29,-99.99,,---,-99.99,0.00,VWS V14.01,2014-02-22 20:15:00,
2014-02-22 14:20:00,44.4,14.2,29.91,NNE,22,6.0,6.0,29,-99.99,,---,-99.99,0.00,VWS V14.01,2014-02-22 20:20:00,
2014-02-22 14:26:00,44.6,13.5,29.88,ENE,68,2.7,2.7,28,-99.99,,---,-99.99,0.00,VWS V14.01,2014-02-22 20:26:00,
2014-02-22 14:31:00,45.1,14.0,29.88,NNE,22,6.9,6.9,28,-99.99,,---,-99.99,0.00,VWS V14.01,2014-02-22 20:31:00,
2014-02-22 14:36:00,45.1,14.0,29.91,NNE,22,4.3,4.3,28,-99.99,,---,-99.99,0.00,VWS V14.01,2014-02-22 20:36:00,
2014-02-22 14:41:00,45.1,14.0,29.91,ENE,68,6.0,6.0,28,-99.99,,---,-99.99,0.00,VWS V14.01,2014-02-22 20:41:00,
2014-02-22 14:46:00,45.1,14.0,29.91,East,90,7.6,7.6,28,-99.99,,---,-99.99,0.00,VWS V14.01,2014-02-22 20:46:00,
2014-02-22 14:51:00,45.5,11.7,29.91,NE,45,5.6,8.1,25,-99.99,,---,-99.99,0.00,VWS V14.01,2014-02-22 20:51:00,
2014-02-22 14:56:00,45.5,13.5,29.91,ENE,68,5.8,8.1,27,-99.99,,---,-99.99,0.00,VWS V14.01,2014-02-22 20:56:00,
2014-02-22 15:01:00,46.2,14.1,29.91,NNE,22,6.3,6.3,27,-99.99,,---,-99.99,0.00,VWS V14.01,2014-02-22 21:01:00,
2014-02-22 15:06:00,46.2,14.1,29.91,NE,45,3.4,4.9,27,-99.99,,---,-99.99,0.00,VWS V14.01,2014-02-22 21:06:00,
2014-02-22 15:11:00,46.6,14.4,29.91,NNW,338,2.7,2.7,27,-99.99,,---,-99.99,0.00,VWS V14.01,2014-02-22 21:11:00,
2014-02-22 15:16:00,46.6,14.4,29.91,NNW,338,2.7,2.7,27,-99.99,,---,-99.99,0.00,VWS V14.01,2014-02-22 21:16:00,
2014-02-22 15:21:00,46.6,14.4,29.91,NNE,22,0.9,0.9,27,-99.99,,---,-99.99,0.00,VWS V14.01,2014-02-22 21:21:00,
2014-02-22 15:26:00,46.0,12.2,29.94,NE,45,5.4,7.8,25,-99.99,,---,-99.99,0.00,VWS V14.01,2014-02-22 21:26:00,
2014-02-22 15:31:00,45.3,8.7,29.94,North,0,4.7,4.7,22,-99.99,,---,-99.99,0.00,VWS V14.01,2014-02-22 21:31:00,
2014-02-22 15:36:00,45.3,8.7,29.94,NNE,22,2.9,4.0,22,-99.99,,---,-99.99,0.00,VWS V14.01,2014-02-22 21:36:00,
2014-02-22 15:41:00,45.3,8.7,29.94,ENE,68,4.3,4.9,22,-99.99,,---,-99.99,0.00,VWS V14.01,2014-02-22 21:41:00,
2014-02-22 15:46:00,45.3,8.7,29.94,ENE,68,4.3,4.3,22,-99.99,,---,-99.99,0.00,VWS V14.01,2014-02-22 21:46:00,
2014-02-22 15:51:00,45.1,8.6,29.94,NE,45,3.1,3.1,22,-99.99,,---,-99.99,0.00,VWS V14.01,2014-02-22 21:51:00,
2014-02-22 15:56:00,45.3,8.7,29.94,NNE,22,6.3,6.3,22,-99.99,,---,-99.99,0.00,VWS V14.01,2014-02-22 21:56:00,
2014-02-22 16:01:00,44.6,8.1,29.94,NNE,22,0.0,6.3,22,-99.99,,---,-99.99,0.00,VWS V14.01,2014-02-22 22:01:00,
2014-02-22 16:06:00,44.6,8.1,29.94,ENE,68,2.0,4.9,22,-99.99,,---,-99.99,0.00,VWS V14.01,2014-02-22 22:06:00,
2014-02-22 16:11:00,44.6,8.1,29.94,ENE,68,1.1,2.0,22,-99.99,,---,-99.99,0.00,VWS V14.01,2014-02-22 22:11:00,
2014-02-22 16:16:00,44.4,8.9,29.94,ENE,68,6.0,11.0,23,-99.99,,---,-99.99,0.00,VWS V14.01,2014-02-22 22:16:00,
2014-02-22 16:21:00,43.9,8.5,29.91,NE,45,7.6,11.0,23,-99.99,,---,-99.99,0.00,VWS V14.01,2014-02-22 22:21:00,
2014-02-22 16:26:00,43.3,8.0,29.91,NE,45,10.3,10.3,23,-99.99,,---,-99.99,0.00,VWS V14.01,2014-02-22 22:26:00,
2014-02-22 16:31:00,43.2,7.9,29.91,ENE,68,3.8,6.0,23,-99.99,,---,-99.99,0.00,VWS V14.01,2014-02-22 22:31:00,
2014-02-22 16:37:00,43.0,7.7,29.91,ENE,68,4.3,4.3,23,-99.99,,---,-99.99,0.00,VWS V14.01,2014-02-22 22:37:00,
2014-02-22 16:42:00,42.6,7.4,29.91,NNW,338,2.9,2.9,23,-99.99,,---,-99.99,0.00,VWS V14.01,2014-02-22 22:42:00,
2014-02-22 16:47:00,42.6,7.4,29.91,NE,45,3.1,3.4,23,-99.99,,---,-99.99,0.00,VWS V14.01,2014-02-22 22:47:00,
2014-02-22 16:52:00,42.4,7.3,29.91,ENE,68,6.3,6.3,23,-99.99,,---,-99.99,0.00,VWS V14.01,2014-02-22 22:52:00,
2014-02-22 16:57:00,42.3,7.1,29.94,NE,45,4.9,6.5,23,-99.99,,---,-99.99,0.00,VWS V14.01,2014-02-22 22:57:00,
2014-02-22 17:02:00,41.5,6.5,29.94,NNE,22,5.6,5.8,23,-99.99,,---,-99.99,0.00,VWS V14.01,2014-02-22 23:02:00,
2014-02-22 17:07:00,40.8,5.9,29.94,NE,45,3.8,3.8,23,-99.99,,---,-99.99,0.00,VWS V14.01,2014-02-22 23:07:00,
2014-02-22 17:12:00,40.1,5.3,29.94,ENE,68,6.0,6.0,23,-99.99,,---,-99.99,0.00,VWS V14.01,2014-02-22 23:12:00,
2014-02-22 17:17:00,40.1,5.3,29.94,NE,45,3.8,3.8,23,-99.99,,---,-99.99,0.00,VWS V14.01,2014-02-22 23:17:00,
2014-02-22 17:22:00,39.4,4.7,29.94,ENE,68,0.0,5.8,23,-99.99,,---,-99.99,0.00,VWS V14.01,2014-02-22 23:22:00,
2014-02-22 17:27:00,38.8,5.2,0.00,East,90,0.0,0.0,24,-99.99,,---,-99.99,0.00,VWS V14.01,2014-02-22 23:27:00,
2014-02-22 17:32:00,38.8,6.9,29.91,NE,45,5.6,5.6,26,-99.99,,---,-99.99,0.00,VWS V14.01,2014-02-22 23:32:00,
2014-02-22 17:37:00,38.3,6.4,29.91,ENE,68,0.0,0.0,26,-99.99,,---,-99.99,0.00,VWS V14.01,2014-02-22 23:37:00,
2014-02-22 17:42:00,37.9,6.1,29.91,NE,45,3.1,3.1,26,-99.99,,---,-99.99,0.00,VWS V14.01,2014-02-22 23:42:00,
2014-02-22 17:48:00,37.6,8.2,29.91,ENE,68,0.0,0.0,29,-99.99,,---,-99.99,0.00,VWS V14.01,2014-02-22 23:48:00,
2014-02-22 17:53:00,37.4,8.1,29.91,ENE,68,0.0,0.0,29,-99.99,,---,-99.99,0.00,VWS V14.01,2014-02-22 23:53:00,
2014-02-22 17:58:00,36.9,7.6,29.91,ENE,68,0.0,0.0,29,-99.99,,---,-99.99,0.00,VWS V14.01,2014-02-22 23:58:00,
2014-02-22 18:03:00,36.5,8.0,29.91,NE,45,3.4,3.4,30,-99.99,,---,-99.99,0.00,VWS V14.01,2014-02-23 00:03:00,
2014-02-22 18:08:00,36.3,7.9,29.91,East,90,1.3,1.3,30,-99.99,,---,-99.99,0.00,VWS V14.01,2014-02-23 00:08:00,
2014-02-22 18:13:00,36.3,7.9,29.91,ENE,68,0.0,1.3,30,-99.99,,---,-99.99,0.00,VWS V14.01,2014-02-23 00:13:00,
2014-02-22 18:18:00,35.8,7.4,29.91,ENE,68,0.0,0.0,30,-99.99,,---,-99.99,0.00,VWS V14.01,2014-02-23 00:18:00,
2014-02-22 18:23:00,35.6,7.2,29.91,ENE,68,0.0,0.0,30,-99.99,,---,-99.99,0.00,VWS V14.01,2014-02-23 00:23:00,
2014-02-22 18:28:00,35.2,7.7,29.91,ENE,68,0.0,0.0,31,-99.99,,---,-99.99,0.00,VWS V14.01,2014-02-23 00:28:00,
2014-02-22 18:33:00,35.1,7.5,29.91,NE,45,0.0,0.0,31,-99.99,,---,-99.99,0.00,VWS V14.01,2014-02-23 00:33:00,
2014-02-22 18:38:00,35.1,7.5,29.94,NNE,22,0.0,0.0,31,-99.99,,---,-99.99,0.00,VWS V14.01,2014-02-23 00:38:00,
2014-02-22 18:43:00,34.7,7.2,29.94,NNW,338,0.0,0.0,31,-99.99,,---,-99.99,0.00,VWS V14.01,2014-02-23 00:43:00,
2014-02-22 18:48:00,34.5,7.0,29.94,NE,45,0.0,0.0,31,-99.99,,---,-99.99,0.00,VWS V14.01,2014-02-23 00:48:00,
2014-02-22 18:53:00,34.5,7.0,29.94,NNE,22,0.0,0.0,31,-99.99,,---,-99.99,0.00,VWS V14.01,2014-02-23 00:53:00,
2014-02-22 18:58:00,34.3,7.6,29.94,NNE,22,0.0,0.0,32,-99.99,,---,-99.99,0.00,VWS V14.01,2014-02-23 00:58:00,
2014-02-22 19:03:00,34.2,7.4,29.94,NNE,22,0.0,0.0,32,-99.99,,---,-99.99,0.00,VWS V14.01,2014-02-23 01:03:00,
2014-02-22 19:08:00,34.0,7.2,29.94,NNE,22,0.0,0.0,32,-99.99,,---,-99.99,0.00,VWS V14.01,2014-02-23 01:08:00,
2014-02-22 19:13:00,34.2,8.1,29.94,NNE,22,0.0,0.0,33,-99.99,,---,-99.99,0.00,VWS V14.01,2014-02-23 01:13:00,
2014-02-22 19:18:00,34.2,8.1,29.94,NNE,22,0.0,0.0,33,-99.99,,---,-99.99,0.00,VWS V14.01,2014-02-23 01:18:00,
2014-02-22 19:23:00,34.2,8.1,29.94,NE,45,0.0,0.0,33,-99.99,,---,-99.99,0.00,VWS V14.01,2014-02-23 01:23:00,
2014-02-22 19:28:00,34.0,7.2,29.91,NNE,22,0.0,0.0,32,-99.99,,---,-99.99,0.00,VWS V14.01,2014-02-23 01:28:00,
2014-02-22 19:33:00,33.8,7.1,29.91,NE,45,0.0,0.0,32,-99.99,,---,-99.99,0.00,VWS V14.01,2014-02-23 01:33:00,
2014-02-22 19:38:00,33.8,7.1,29.94,NNW,338,0.0,0.0,32,-99.99,,---,-99.99,0.00,VWS V14.01,2014-02-23 01:38:00,
2014-02-22 19:43:00,33.6,6.9,29.94,NNE,22,0.0,0.0,32,-99.99,,---,-99.99,0.00,VWS V14.01,2014-02-23 01:43:00,
2014-02-22 19:48:00,33.6,6.9,29.94,North,0,3.1,3.1,32,-99.99,,---,-99.99,0.00,VWS V14.01,2014-02-23 01:48:00,
2014-02-22 19:53:00,33.4,6.8,29.94,NNW,338,0.0,0.0,32,-99.99,,---,-99.99,0.00,VWS V14.01,2014-02-23 01:53:00,
2014-02-22 19:58:00,33.4,6.8,29.94,NNE,22,3.8,3.8,32,-99.99,,---,-99.99,0.00,VWS V14.01,2014-02-23 01:58:00,
2014-02-22 20:03:00,33.4,6.8,29.94,NNE,22,4.7,4.7,32,-99.99,,---,-99.99,0.00,VWS V14.01,2014-02-23 02:03:00,
2014-02-22 20:09:00,32.7,6.1,29.94,ENE,68,2.0,2.2,32,-99.99,,---,-99.99,0.00,VWS V14.01,2014-02-23 02:09:00,
2014-02-22 20:14:00,32.5,6.6,29.94,NNE,22,1.6,1.6,33,-99.99,,---,-99.99,0.00,VWS V14.01,2014-02-23 02:14:00,
2014-02-22 20:19:00,32.5,6.6,29.94,NNE,22,2.5,4.7,33,-99.99,,---,-99.99,0.00,VWS V14.01,2014-02-23 02:19:00,
2014-02-22 20:24:00,32.4,6.5,29.94,North,0,6.5,6.5,33,-99.99,,---,-99.99,0.00,VWS V14.01,2014-02-23 02:24:00,
2014-02-22 20:29:00,32.2,5.7,29.94,NE,45,5.4,5.4,32,-99.99,,---,-99.99,0.00,VWS V14.01,2014-02-23 02:29:00,
2014-02-22 20:34:00,32.0,5.5,29.94,NNW,338,2.2,2.2,32,-99.99,,---,-99.99,0.00,VWS V14.01,2014-02-23 02:34:00,